Skip Page Navigation
NASA JPL Caltech
NASA Logo - Jet Propulsion Laboratory + View the NASA Portal
+ Center for Near-Earth Object Studies
JPL Home Earth Solar System Stars & Galaxies Technology
JPL Solar System Dynamics
BODIES ORBITS EPHEMERIDES TOOLS PHYSICAL DATA DISCOVERY FAQ SITE MAP
JPL Small-Body Database Browser
Search: [ help ]  
3955 Bruckner (1988 RF3)
Classification: Main-belt Asteroid          SPK-ID: 2003955
Ephemeris | Orbit Diagram | Orbital Elements | Mission Design | Physical Parameters | Discovery Circumstances | Close-Approach Data ]

[ show orbit diagram ]
Orbital Elements at Epoch 2459000.5 (2020-May-31.0) TDB
Reference: JPL 40 (heliocentric ecliptic J2000)
 Element Value Uncertainty (1-sigma)   Units 
e .07593936989924806 3.0735e-08  
a 3.018163350332762 1.3968e-08 au
q 2.788965927255489 9.5924e-08 au
i 10.4253702950528 4.1898e-06 deg
node 23.56633674982412 1.8226e-05 deg
peri 82.35370183323673 3.3838e-05 deg
M 321.5198106010143 2.7724e-05 deg
tp 2459205.213856014051
(2020-Dec-21.71385601)
0.00014762 TDB
period 1915.192968540866
5.24
1.3295e-05
3.64e-08
d
yr
n .1879706149267425 1.3048e-09 deg/d
Q 3.247360773410036 1.5028e-08 au
  Orbit Determination Parameters
   # obs. used (total)      2871  
   data-arc span      23408 days (64.09 yr)  
   first obs. used      1956-10-11  
   last obs. used      2020-11-12  
   planetary ephem.      DE431  
   SB-pert. ephem.      SB431-N16  
   condition code      0  
   norm. resid. RMS      .44323  
   source      ORB  
   producer      Otto Matic  
   solution date      2020-Dec-18 02:15:00  

Additional Information
 Earth MOID = 1.83016 au 
 Jupiter MOID = 1.89246 au 
 T_jup = 3.218 
[ show covariance matrix ]

Ephemeris | Orbit Diagram | Orbital Elements | Mission Design | Physical Parameters | Discovery Circumstances | Close-Approach Data ]

Physical Parameter Table
Parameter Symbol Value Units Sigma Reference Notes
absolute magnitude H 11.3   n/a MPO332855  
diameter diameter 18.066 km 0.205 urn:nasa:pds:neowise_diameters_albedos::2.0[mainbelt] (http://adsabs.harvard.edu/abs/2014ApJ...791..121M)  
geometric albedo albedo 0.163   0.019 urn:nasa:pds:neowise_diameters_albedos::2.0[mainbelt] (http://adsabs.harvard.edu/abs/2014ApJ...791..121M)  

3955 Bruckner (1988 RF3)          Discovered 1988-Sep-09 by Borngen, F. at Tautenburg
Reference: DISCOVERY.DBLast Updated: 2003-08-29

[ show close-approach data ]
Alternate Designations
 1988 RF3 = 1956 TQ = 1972 TJ8 = 1977 RD6 = 1977 TB7 = 1980 GJ1 = 1982 RM 
Ephemeris | Orbit Diagram | Orbital Elements | Mission Design | Physical Parameters | Discovery Circumstances | Close-Approach Data ]
ABOUT SSD CREDITS/AWARDS PRIVACY/COPYRIGHT GLOSSARY LINKS
FirstGov 2021-Jan-22 04:57 UT
(server date/time)  
NASA Home Page
Site Manager:   Ryan S. Park
Webmaster  Alan B. Chamberlin